| time (UTC) | temp C | wind direction | speed KPH | gust KPH | rain 1hr cm | rain 24hr cm | rain mn cm | humidity % | barometer mb |
| 20260510180243 | 27 | 303 | 0.0 | 3.2 | 0.00 | 0.08 | 0.00 | 75 | 1014.9 |
| 20260510175505 | 27 | 149 | 0.0 | 3.2 | 0.00 | 0.08 | 0.00 | 75 | 1014.9 |
| 20260510175004 | 27 | 37 | 0.0 | 3.2 | 0.00 | 0.08 | 0.00 | 74 | 1015.0 |
| 20260510174504 | 26 | 120 | 1.6 | 4.8 | 0.00 | 0.08 | 0.00 | 77 | 1015.1 |
| 20260510174004 | 26 | 148 | 1.6 | 4.8 | 0.00 | 0.08 | 0.00 | 79 | 1015.2 |
| 20260510173504 | 26 | 289 | 0.0 | 8.0 | 0.00 | 0.08 | 0.00 | 79 | 1015.2 |
| 20260510173257 | 26 | 283 | 3.2 | 8.0 | 0.00 | 0.08 | 0.00 | 78 | 1015.3 |
| 20260510172510 | 26 | 357 | 0.0 | 3.2 | 0.00 | 0.10 | 0.00 | 79 | 1015.4 |
| 20260510172002 | 26 | 303 | 1.6 | 3.2 | 0.00 | 0.10 | 0.00 | 78 | 1015.5 |
| 20260510171505 | 26 | 124 | 0.0 | 3.2 | 0.00 | 0.10 | 0.00 | 79 | 1015.4 |
| 20260510171003 | 25 | 202 | 0.0 | 3.2 | 0.00 | 0.10 | 0.00 | 80 | 1015.5 |
| 20260510170503 | 25 | 10 | 0.0 | 3.2 | 0.00 | 0.13 | 0.00 | 84 | 1015.7 |
| 20260510170002 | 24 | 250 | 1.6 | 3.2 | 0.00 | 0.13 | 0.00 | 85 | 1015.5 |
| 20260510165502 | 23 | 219 | 0.0 | 1.6 | 0.00 | 0.15 | 0.00 | 85 | 1015.6 |
| 20260510165003 | 23 | 219 | 0.0 | 3.2 | 0.00 | 0.15 | 0.00 | 88 | 1015.8 |
| 20260510164504 | 23 | 37 | 0.0 | 3.2 | 0.00 | 0.18 | 0.00 | 92 | 1015.7 |
| 20260510164041 | 22 | 237 | 1.6 | 4.8 | 0.00 | 0.20 | 0.00 | 94 | 1015.8 |
| 20260510164030 | 23 | 137 | 0.0 | 4.8 | 0.00 | 0.18 | 0.00 | 93 | 1015.7 |
| 20260510163004 | 22 | 235 | 0.0 | 1.6 | 0.00 | 0.23 | 0.00 | 95 | 1015.8 |
| 20260510162503 | 21 | 235 | 0.0 | 3.2 | 0.00 | 0.25 | 0.00 | 95 | 1015.8 |
| 20260510162004 | 21 | 235 | 0.0 | 3.2 | 0.00 | 0.28 | 0.00 | 96 | 1015.9 |
| 20260510161503 | 21 | 358 | 0.0 | 1.6 | 0.00 | 0.28 | 0.00 | 98 | 1016.0 |
| 20260510161002 | 21 | 3 | 0.0 | 1.6 | 0.00 | 0.30 | 0.00 | 98 | 1015.9 |
| 20260510160502 | 21 | 3 | 1.6 | 1.6 | 0.00 | 0.36 | 0.00 | 98 | 1015.9 |
| 20260510160002 | 21 | 117 | 0.0 | 1.6 | 0.00 | 0.41 | 0.00 | 98 | 1015.8 |
| 20260510155502 | 21 | 117 | 0.0 | 1.6 | 0.00 | 0.51 | 0.00 | 98 | 1015.8 |
| 20260510155004 | 21 | 134 | 0.0 | 1.6 | 0.00 | 0.58 | 0.00 | 99 | 1016.0 |
| 20260510154504 | 21 | 134 | 0.0 | 1.6 | 0.00 | 0.66 | 0.00 | 99 | 1015.9 |
| 20260510154004 | 21 | 226 | 0.0 | 1.6 | 0.00 | 0.76 | 0.00 | 98 | 1015.9 |
| 20260510153503 | 21 | 226 | 0.0 | 1.6 | 0.00 | 0.84 | 0.00 | 98 | 1016.0 |
| 20260510153003 | 21 | 226 | 0.0 | 0.0 | 0.00 | 0.94 | 0.00 | 98 | 1016.0 |
| 20260510152743 | 21 | 226 | 0.0 | 1.6 | 0.00 | 1.02 | 0.00 | 99 | 1016.1 |
| 20260510151959 | 21 | 226 | 0.0 | 1.6 | 0.00 | 1.07 | 0.00 | 99 | 1016.0 |
| 20260510151459 | 21 | 134 | 0.0 | 1.6 | 0.00 | 1.12 | 0.00 | 99 | 1016.0 |
| 20260510151001 | 21 | 125 | 0.0 | 1.6 | 0.00 | 1.19 | 0.00 | 99 | 1015.9 |
| 20260510150458 | 20 | 125 | 0.0 | 1.6 | 0.00 | 1.22 | 0.00 | 99 | 1015.9 |
| 20260510145956 | 20 | 125 | 0.0 | 1.6 | 0.00 | 1.24 | 0.00 | 99 | 1015.9 |
| 20260510145520 | 20 | 180 | 0.0 | 0.0 | 0.00 | 1.32 | 0.00 | 99 | 1015.9 |
| 20260510145508 | 20 | 226 | 0.0 | 0.0 | 0.00 | 1.27 | 0.00 | 99 | 1015.9 |
| 20260510144439 | 20 | 199 | 0.0 | 0.0 | 0.00 | 1.35 | 0.00 | 99 | 1015.9 |
| 20260510143936 | 20 | 199 | 0.0 | 0.0 | 0.00 | 1.37 | 0.00 | 99 | 1016.1 |
| 20260510143727 | 19 | 199 | 0.0 | 0.0 | 0.00 | 1.37 | 0.00 | 99 | 1016.1 |
| 20260510142934 | 19 | 199 | 0.0 | 0.0 | 0.00 | 1.42 | 0.00 | 99 | 1016.1 |
| 20260510142433 | 19 | 199 | 0.0 | 0.0 | 0.00 | 1.45 | 0.00 | 99 | 1016.0 |
| 20260510141931 | 19 | 199 | 0.0 | 1.6 | 0.00 | 1.45 | 0.00 | 99 | 1016.1 |
| 20260510141430 | 19 | 213 | 0.0 | 1.6 | 0.00 | 1.47 | 0.00 | 99 | 1016.0 |
| 20260510140930 | 19 | 213 | 0.0 | 1.6 | 0.00 | 1.50 | 0.00 | 99 | 1016.0 |
| 20260510140431 | 18 | 213 | 0.0 | 1.6 | 0.00 | 1.52 | 0.00 | 99 | 1015.9 |
| 20260510140220 | 18 | 213 | 0.0 | 1.6 | 0.00 | 1.52 | 0.00 | 99 | 1015.8 |
| 20260510135429 | 18 | 213 | 0.0 | 1.6 | 0.00 | 1.55 | 0.00 | 99 | 1015.8 |
| 20260510134931 | 18 | 251 | 0.0 | 0.0 | 0.00 | 1.57 | 0.00 | 99 | 1015.8 |
| 20260510134430 | 18 | 251 | 0.0 | 1.6 | 0.00 | 1.63 | 0.00 | 99 | 1015.7 |
| 20260510134210 | 18 | 251 | 0.0 | 1.6 | 0.00 | 1.68 | 0.00 | 99 | 1015.7 |
| 20260510133430 | 18 | 251 | 0.0 | 0.0 | 0.00 | 1.70 | 0.00 | 99 | 1015.8 |
| 20260510132930 | 18 | 251 | 0.0 | 1.6 | 0.00 | 1.75 | 0.00 | 99 | 1015.6 |
| 20260510132508 | 18 | 251 | 0.0 | 1.6 | 0.00 | 1.96 | 0.00 | 99 | 1015.6 |
| 20260510132454 | 18 | 251 | 0.0 | 1.6 | 0.00 | 1.80 | 0.00 | 99 | 1015.5 |
| 20260510131758 | 18 | 251 | 0.0 | 1.6 | 0.00 | 2.18 | 0.00 | 99 | 1015.5 |
| 20260510131752 | 18 | 251 | 0.0 | 1.6 | 0.00 | 2.16 | 0.00 | 99 | 1015.6 |
| 20260510130428 | 18 | 251 | 0.0 | 0.0 | 0.00 | 2.21 | 0.00 | 99 | 1015.5 |
| 20260510125930 | 18 | 251 | 0.0 | 0.0 | 0.00 | 2.21 | 0.00 | 99 | 1015.3 |
| 20260510125430 | 18 | 251 | 0.0 | 0.0 | 0.00 | 2.21 | 0.00 | 99 | 1015.3 |
| 20260510124929 | 18 | 251 | 0.0 | 0.0 | 0.00 | 2.21 | 0.00 | 99 | 1015.3 |
| 20260510124428 | 18 | 251 | 0.0 | 0.0 | 0.00 | 2.21 | 0.00 | 99 | 1015.1 |
| 20260510123929 | 17 | 251 | 0.0 | 0.0 | 0.00 | 2.21 | 0.00 | 99 | 1015.1 |
| 20260510123429 | 17 | 251 | 0.0 | 0.0 | 0.00 | 2.21 | 0.00 | 99 | 1015.1 |
| 20260510122928 | 17 | 251 | 0.0 | 1.6 | 0.00 | 2.21 | 0.00 | 99 | 1015.1 |
| 20260510122429 | 18 | 251 | 0.0 | 1.6 | 0.00 | 2.21 | 0.00 | 99 | 1015.1 |
| 20260510121928 | 18 | 251 | 0.0 | 0.0 | 0.00 | 2.21 | 0.00 | 99 | 1015.1 |
| 20260510121719 | 18 | 251 | 0.0 | 0.0 | 0.00 | 2.21 | 0.00 | 99 | 1014.9 |
| 20260510120927 | 18 | 214 | 0.0 | 1.6 | 0.00 | 2.21 | 0.00 | 99 | 1014.7 |
| 20260510120427 | 18 | 214 | 0.0 | 1.6 | 0.00 | 2.21 | 0.00 | 99 | 1014.6 |
| 20260510115927 | 17 | 214 | 0.0 | 0.0 | 0.00 | 2.21 | 0.00 | 99 | 1014.6 |
| 20260510115427 | 17 | 214 | 0.0 | 0.0 | 0.00 | 2.21 | 0.00 | 99 | 1014.5 |
| 20260510114928 | 17 | 214 | 0.0 | 0.0 | 0.00 | 2.21 | 0.00 | 99 | 1014.4 |
| 20260510114428 | 17 | 214 | 0.0 | 1.6 | 0.00 | 2.21 | 0.00 | 99 | 1014.3 |
| 20260510113926 | 17 | 214 | 0.0 | 1.6 | 0.00 | 2.21 | 0.00 | 99 | 1014.2 |
| 20260510113427 | 17 | 214 | 0.0 | 0.0 | 0.00 | 2.21 | 0.00 | 99 | 1014.1 |
| 20260510112927 | 17 | 214 | 0.0 | 0.0 | 0.00 | 2.21 | 0.00 | 99 | 1014.0 |
| 20260510112717 | 17 | 214 | 0.0 | 0.0 | 0.00 | 2.21 | 0.00 | 99 | 1013.9 |
| 20260510111926 | 17 | 214 | 0.0 | 0.0 | 0.00 | 2.21 | 0.00 | 99 | 1013.8 |
| 20260510111427 | 17 | 214 | 0.0 | 0.0 | 0.00 | 2.21 | 0.00 | 99 | 1013.6 |
| 20260510110926 | 17 | 214 | 0.0 | 0.0 | 0.00 | 2.21 | 0.00 | 99 | 1013.5 |
| 20260510110716 | 17 | 214 | 0.0 | 0.0 | 0.00 | 2.21 | 0.00 | 99 | 1013.5 |
| 20260510105928 | 17 | 214 | 0.0 | 0.0 | 0.00 | 2.21 | 0.00 | 99 | 1013.4 |
| 20260510105427 | 17 | 214 | 0.0 | 0.0 | 0.00 | 2.21 | 0.00 | 99 | 1013.4 |
| 20260510105211 | 17 | 214 | 0.0 | 0.0 | 0.00 | 2.21 | 0.00 | 99 | 1013.4 |
| 20260510104425 | 17 | 214 | 0.0 | 0.0 | 0.00 | 2.21 | 0.00 | 99 | 1013.3 |
| 20260510104225 | 17 | 214 | 0.0 | 0.0 | 0.00 | 2.21 | 0.00 | 99 | 1013.2 |
| 20260510103426 | 17 | 214 | 0.0 | 0.0 | 0.00 | 2.21 | 0.00 | 99 | 1013.3 |
| 20260510102924 | 17 | 214 | 0.0 | 0.0 | 0.00 | 2.21 | 0.00 | 99 | 1013.2 |
| 20260510102426 | 17 | 214 | 0.0 | 0.0 | 0.00 | 2.21 | 0.00 | 99 | 1013.2 |
| 20260510101926 | 17 | 214 | 0.0 | 0.0 | 0.00 | 2.21 | 0.00 | 99 | 1013.2 |
| 20260510101425 | 17 | 214 | 0.0 | 0.0 | 0.00 | 2.21 | 0.00 | 99 | 1013.0 |
| 20260510100926 | 17 | 214 | 0.0 | 0.0 | 0.00 | 2.21 | 0.00 | 99 | 1012.9 |
| 20260510100424 | 17 | 214 | 0.0 | 0.0 | 0.00 | 2.21 | 0.00 | 99 | 1012.9 |
| 20260510095925 | 17 | 214 | 0.0 | 0.0 | 0.00 | 2.21 | 0.00 | 99 | 1012.9 |
| 20260510095424 | 17 | 214 | 0.0 | 0.0 | 0.00 | 2.21 | 0.00 | 99 | 1012.8 |
| 20260510094924 | 17 | 214 | 0.0 | 0.0 | 0.00 | 2.21 | 0.00 | 99 | 1012.8 |
| 20260510094424 | 17 | 214 | 0.0 | 0.0 | 0.00 | 2.21 | 0.00 | 99 | 1012.8 |
| 20260510093924 | 17 | 214 | 0.0 | 0.0 | 0.00 | 2.21 | 0.00 | 99 | 1012.7 |
| 20260510093425 | 17 | 214 | 0.0 | 0.0 | 0.00 | 2.21 | 0.00 | 99 | 1012.7 |
| 20260510092924 | 17 | 214 | 0.0 | 0.0 | 0.00 | 2.21 | 0.00 | 99 | 1012.6 |
| 20260510092424 | 17 | 214 | 0.0 | 0.0 | 0.00 | 2.21 | 0.00 | 99 | 1012.7 |
| 20260510091925 | 17 | 214 | 0.0 | 0.0 | 0.00 | 2.21 | 0.00 | 99 | 1012.5 |
| 20260510091423 | 17 | 214 | 0.0 | 0.0 | 0.00 | 2.21 | 0.00 | 99 | 1012.5 |
| 20260510091015 | 17 | 214 | 0.0 | 0.0 | 0.00 | 2.24 | 0.00 | 99 | 1012.4 |
| 20260510090954 | 17 | 214 | 0.0 | 0.0 | 0.00 | 2.24 | 0.00 | 99 | 1012.5 |
| 20260510085925 | 17 | 214 | 0.0 | 0.0 | 0.00 | 2.24 | 0.00 | 99 | 1012.3 |
| 20260510085423 | 17 | 214 | 0.0 | 0.0 | 0.00 | 2.24 | 0.00 | 99 | 1012.3 |
| 20260510084925 | 17 | 214 | 0.0 | 0.0 | 0.00 | 2.24 | 0.00 | 99 | 1012.3 |
| 20260510084423 | 17 | 214 | 0.0 | 0.0 | 0.00 | 2.24 | 0.00 | 99 | 1012.3 |
| 20260510083923 | 17 | 214 | 0.0 | 0.0 | 0.00 | 2.24 | 0.00 | 99 | 1012.3 |
| 20260510083422 | 17 | 214 | 0.0 | 0.0 | 0.00 | 2.24 | 0.00 | 99 | 1012.1 |
| 20260510082922 | 17 | 214 | 0.0 | 0.0 | 0.00 | 2.24 | 0.00 | 99 | 1012.0 |
| 20260510082424 | 17 | 214 | 0.0 | 1.6 | 0.00 | 2.24 | 0.00 | 99 | 1011.8 |
| 20260510081924 | 17 | 214 | 0.0 | 1.6 | 0.00 | 2.24 | 0.00 | 99 | 1011.8 |
| 20260510081424 | 17 | 214 | 0.0 | 0.0 | 0.00 | 2.24 | 0.00 | 99 | 1012.0 |
| 20260510080923 | 17 | 214 | 0.0 | 0.0 | 0.00 | 2.24 | 0.00 | 99 | 1011.8 |
| 20260510080422 | 17 | 214 | 0.0 | 0.0 | 0.00 | 2.24 | 0.00 | 99 | 1011.9 |
| 20260510075923 | 17 | 214 | 0.0 | 0.0 | 0.00 | 2.24 | 0.00 | 99 | 1011.8 |
| 20260510075715 | 17 | 214 | 0.0 | 0.0 | 0.00 | 2.24 | 0.00 | 99 | 1011.9 |
| 20260510074921 | 17 | 214 | 0.0 | 0.0 | 0.00 | 2.24 | 0.00 | 99 | 1011.8 |
| 20260510074421 | 17 | 214 | 0.0 | 0.0 | 0.00 | 2.24 | 0.00 | 99 | 1011.9 |
| 20260510073921 | 17 | 214 | 0.0 | 0.0 | 0.00 | 2.26 | 0.00 | 99 | 1012.1 |
| 20260510073421 | 17 | 214 | 0.0 | 0.0 | 0.00 | 2.26 | 0.00 | 99 | 1012.1 |
| 20260510072921 | 17 | 214 | 0.0 | 0.0 | 0.00 | 2.29 | 0.00 | 99 | 1012.0 |
| 20260510072421 | 17 | 214 | 0.0 | 0.0 | 0.00 | 2.31 | 0.00 | 99 | 1011.9 |
| 20260510071922 | 17 | 214 | 0.0 | 0.0 | 0.00 | 2.34 | 0.00 | 99 | 1011.9 |
| 20260510071421 | 17 | 214 | 0.0 | 0.0 | 0.00 | 2.44 | 0.00 | 99 | 1012.0 |
| 20260510070921 | 17 | 214 | 0.0 | 0.0 | 0.00 | 2.67 | 0.00 | 99 | 1012.0 |
| 20260510070421 | 17 | 214 | 0.0 | 0.0 | 0.00 | 2.67 | 0.00 | 99 | 1011.9 |
| 20260510065920 | 17 | 214 | 0.0 | 0.0 | 0.00 | 2.67 | 0.00 | 99 | 1012.0 |
| 20260510065421 | 17 | 214 | 0.0 | 1.6 | 0.00 | 2.67 | 0.00 | 99 | 1011.9 |
| 20260510064920 | 17 | 214 | 0.0 | 1.6 | 0.00 | 2.67 | 0.00 | 99 | 1011.7 |
| 20260510064421 | 17 | 214 | 0.0 | 0.0 | 0.00 | 2.67 | 0.00 | 99 | 1011.6 |
| 20260510063920 | 17 | 214 | 0.0 | 0.0 | 0.00 | 2.67 | 0.00 | 99 | 1011.5 |
| 20260510063420 | 17 | 214 | 0.0 | 0.0 | 0.00 | 2.67 | 0.00 | 99 | 1011.4 |
| 20260510062920 | 17 | 214 | 0.0 | 0.0 | 0.00 | 2.67 | 0.00 | 99 | 1011.4 |
| 20260510062419 | 17 | 214 | 0.0 | 0.0 | 0.00 | 2.67 | 0.00 | 99 | 1011.3 |
| 20260510061919 | 17 | 214 | 0.0 | 0.0 | 0.00 | 2.67 | 0.00 | 99 | 1011.3 |
| 20260510061419 | 17 | 214 | 0.0 | 0.0 | 0.00 | 2.67 | 0.00 | 99 | 1011.4 |
| 20260510060920 | 17 | 214 | 0.0 | 0.0 | 0.00 | 2.67 | 0.00 | 99 | 1011.4 |
| 20260510060420 | 17 | 214 | 0.0 | 0.0 | 0.00 | 2.67 | 0.00 | 99 | 1011.6 |
| 20260510055919 | 17 | 214 | 0.0 | 0.0 | 0.00 | 2.67 | 0.00 | 99 | 1011.5 |
| 20260510055707 | 17 | 214 | 0.0 | 1.6 | 0.00 | 2.67 | 0.00 | 99 | 1011.6 |
| 20260510054919 | 17 | 214 | 0.0 | 1.6 | 0.00 | 2.67 | 0.00 | 99 | 1011.6 |
| 20260510054713 | 17 | 214 | 0.0 | 0.0 | 0.00 | 2.67 | 0.00 | 99 | 1011.7 |
| 20260510053918 | 17 | 214 | 0.0 | 0.0 | 0.00 | 2.67 | 0.00 | 99 | 1011.6 |
| 20260510053708 | 17 | 214 | 0.0 | 1.6 | 0.00 | 2.67 | 0.00 | 99 | 1011.5 |
| 20260510052921 | 17 | 214 | 0.0 | 1.6 | 0.00 | 2.67 | 0.00 | 99 | 1011.6 |
| 20260510052419 | 18 | 214 | 0.0 | 0.0 | 0.00 | 2.67 | 0.00 | 99 | 1011.7 |
| 20260510051918 | 18 | 214 | 0.0 | 0.0 | 0.00 | 2.67 | 0.00 | 99 | 1011.8 |
| 20260510051708 | 18 | 214 | 0.0 | 0.0 | 0.00 | 2.67 | 0.00 | 99 | 1012.0 |
| 20260510050919 | 18 | 214 | 0.0 | 0.0 | 0.00 | 2.67 | 0.00 | 99 | 1012.0 |
| 20260510050418 | -17 | 0.0 | 0.0 | 0.00 | 0.00 | 0.00 | 1012.1 | ||
| 20260510045847 | 18 | 214 | 0.0 | 0.0 | 0.00 | 2.67 | 2.67 | 99 | 1012.2 |
| 20260510045104 | 18 | 214 | 0.0 | 0.0 | 0.00 | 2.67 | 2.67 | 99 | 1012.1 |
| 20260510044850 | 18 | 214 | 0.0 | 0.0 | 0.00 | 2.67 | 2.67 | 99 | 1011.9 |
| 20260510044102 | 18 | 214 | 0.0 | 0.0 | 0.00 | 2.67 | 2.67 | 99 | 1011.9 |
| 20260510043843 | 18 | 214 | 0.0 | 0.0 | 0.00 | 2.67 | 2.67 | 99 | 1012.2 |
| 20260510043102 | 18 | 214 | 0.0 | 0.0 | 0.00 | 2.69 | 2.67 | 99 | 1012.3 |
| 20260510042603 | 18 | 214 | 0.0 | 0.0 | 0.00 | 2.69 | 2.67 | 99 | 1012.4 |
| 20260510042104 | 18 | 214 | 0.0 | 0.0 | 0.00 | 2.69 | 2.67 | 99 | 1012.5 |
| 20260510041603 | 18 | 214 | 0.0 | 1.6 | 0.00 | 2.69 | 2.67 | 99 | 1012.7 |
| 20260510041103 | 18 | 214 | 0.0 | 1.6 | 0.00 | 2.69 | 2.67 | 99 | 1013.0 |
| 20260510040603 | 18 | 214 | 0.0 | 0.0 | 0.00 | 2.69 | 2.67 | 99 | 1013.2 |
| 20260510035843 | 18 | 214 | 0.0 | 1.6 | 0.00 | 2.69 | 2.67 | 99 | 1013.3 |
| 20260510035345 | 18 | 214 | 0.0 | 1.6 | 0.00 | 2.69 | 2.67 | 99 | 1013.3 |
| 20260510034849 | 18 | 221 | 0.0 | 1.6 | 0.00 | 2.69 | 2.67 | 99 | 1013.4 |
| 20260510034136 | 18 | 221 | 0.0 | 0.0 | 0.00 | 2.69 | 2.67 | 99 | 1012.9 |
| 20260510034126 | 18 | 221 | 0.0 | 1.6 | 0.00 | 2.69 | 2.67 | 99 | 1013.2 |
| 20260510033102 | 18 | 221 | 0.0 | 0.0 | 0.00 | 2.69 | 2.67 | 99 | 1012.7 |
| 20260510032602 | 18 | 221 | 0.0 | 0.0 | 0.00 | 2.69 | 2.67 | 99 | 1012.6 |
| 20260510032103 | 18 | 221 | 0.0 | 0.0 | 0.00 | 2.69 | 2.67 | 99 | 1012.5 |
| 20260510031603 | 18 | 221 | 0.0 | 0.0 | 0.00 | 2.69 | 2.67 | 99 | 1012.7 |
| 20260510031104 | 18 | 221 | 0.0 | 0.0 | 0.00 | 2.69 | 2.67 | 99 | 1012.7 |
| 20260510030605 | 18 | 221 | 0.0 | 0.0 | 0.00 | 2.69 | 2.67 | 99 | 1012.8 |
| 20260510025604 | 18 | 227 | 0.0 | 0.0 | 0.00 | 2.69 | 2.67 | 99 | 1012.9 |
| 20260510025101 | 18 | 227 | 0.0 | 0.0 | 0.00 | 2.69 | 2.67 | 99 | 1012.9 |
| 20260510024604 | 18 | 227 | 0.0 | 1.6 | 0.03 | 2.69 | 2.67 | 99 | 1012.5 |
| 20260510024102 | 18 | 227 | 0.0 | 1.6 | 0.03 | 2.69 | 2.67 | 99 | 1012.4 |
| 20260510023844 | 18 | 227 | 0.0 | 1.6 | 0.03 | 2.69 | 2.67 | 99 | 1012.6 |
| 20260510023101 | 18 | 227 | 0.0 | 1.6 | 0.03 | 2.69 | 2.67 | 99 | 1012.6 |
| 20260510022605 | 18 | 227 | 0.0 | 1.6 | 0.03 | 2.69 | 2.67 | 99 | 1012.3 |
| 20260510022104 | 18 | 227 | 0.0 | 0.0 | 0.03 | 2.69 | 2.67 | 99 | 1012.0 |
| 20260510021603 | 18 | 227 | 0.0 | 0.0 | 0.03 | 2.69 | 2.67 | 99 | 1011.8 |
| 20260510021103 | 18 | 227 | 0.0 | 0.0 | 0.03 | 2.69 | 2.67 | 99 | 1011.8 |
| 20260510020602 | 18 | 227 | 0.0 | 1.6 | 0.03 | 2.69 | 2.67 | 99 | 1012.0 |
| 20260510020103 | 18 | 227 | 0.0 | 1.6 | 0.03 | 2.69 | 2.67 | 99 | 1012.0 |
| 20260510015631 | 18 | 227 | 0.0 | 1.6 | 0.03 | 2.67 | 2.64 | 99 | 1012.2 |
| 20260510015622 | 18 | 227 | 0.0 | 1.6 | 0.03 | 2.67 | 2.67 | 99 | 1012.2 |
| 20260510014603 | 18 | 238 | 0.0 | 1.6 | 0.00 | 2.67 | 2.64 | 99 | 1012.0 |
| 20260510014101 | 18 | 238 | 0.0 | 1.6 | 0.00 | 2.67 | 2.64 | 99 | 1012.3 |
| 20260510013604 | 18 | 238 | 0.0 | 0.0 | 0.00 | 2.67 | 2.64 | 99 | 1011.8 |
| 20260510013102 | 18 | 145 | 0.0 | 0.0 | 0.00 | 2.67 | 2.64 | 99 | 1011.8 |
| 20260510012558 | 18 | 145 | 0.0 | 1.6 | 0.00 | 2.67 | 2.64 | 99 | 1011.6 |
| 20260510012100 | 18 | 145 | 0.0 | 1.6 | 0.00 | 2.67 | 2.64 | 99 | 1011.6 |
| 20260510011557 | 18 | 145 | 0.0 | 0.0 | 0.00 | 2.67 | 2.64 | 99 | 1011.8 |
| 20260510011058 | 18 | 145 | 0.0 | 0.0 | 0.00 | 2.67 | 2.64 | 99 | 1011.8 |
| 20260510010557 | 18 | 145 | 0.0 | 0.0 | 0.00 | 2.67 | 2.64 | 99 | 1011.9 |
| 20260510010052 | 18 | 145 | 0.0 | 0.0 | 0.00 | 2.67 | 2.64 | 99 | 1011.9 |
| 20260510005551 | 18 | 145 | 0.0 | 0.0 | 0.00 | 2.67 | 2.64 | 99 | 1011.9 |
| 20260510005049 | 18 | 145 | 0.0 | 0.0 | 0.00 | 2.67 | 2.64 | 99 | 1012.0 |
| 20260510004550 | 18 | 145 | 0.0 | 0.0 | 0.00 | 2.67 | 2.64 | 99 | 1012.0 |
| 20260510004329 | 18 | 145 | 0.0 | 0.0 | 0.00 | 2.67 | 2.64 | 99 | 1012.0 |
| 20260510003550 | 18 | 145 | 0.0 | 0.0 | 0.00 | 2.67 | 2.64 | 99 | 1012.1 |
| 20260510003049 | 18 | 145 | 0.0 | 0.0 | 0.00 | 2.67 | 2.64 | 99 | 1012.1 |
| 20260510002549 | 18 | 145 | 0.0 | 1.6 | 0.00 | 2.69 | 2.64 | 99 | 1012.3 |
| 20260510002049 | 18 | 145 | 0.0 | 1.6 | 0.00 | 2.69 | 2.64 | 99 | 1012.2 |
| 20260510001836 | 18 | 145 | 0.0 | 1.6 | 0.00 | 2.69 | 2.64 | 99 | 1011.8 |
| 20260510001049 | 18 | 145 | 0.0 | 1.6 | 0.00 | 2.69 | 2.64 | 99 | 1011.6 |
| 20260510000549 | 18 | 145 | 0.0 | 1.6 | 0.00 | 2.72 | 2.64 | 99 | 1011.5 |
| 20260510000048 | 18 | 145 | 0.0 | 1.6 | 0.00 | 2.72 | 2.64 | 99 | 1011.3 |
| 20260509235548 | 18 | 145 | 0.0 | 1.6 | 0.00 | 2.74 | 2.64 | 99 | 1011.5 |
| 20260509235404 | 18 | 145 | 0.0 | 0.0 | 0.00 | 2.74 | 2.64 | 99 | 1011.5 |
| 20260509235107 | 18 | 145 | 0.0 | 1.6 | 0.00 | 2.74 | 2.64 | 99 | 1011.2 |
| 20260509234050 | 18 | 145 | 0.0 | 1.6 | 0.00 | 2.74 | 2.64 | 99 | 1011.2 |
| 20260509233548 | 19 | 145 | 0.0 | 1.6 | 0.00 | 2.74 | 2.64 | 99 | 1011.3 |
| 20260509233327 | 19 | 145 | 0.0 | 1.6 | 0.00 | 2.77 | 2.64 | 99 | 1010.8 |
| 20260509232831 | 19 | 145 | 0.0 | 0.0 | 0.00 | 2.77 | 2.64 | 99 | 1010.8 |
| 20260509232049 | 19 | 145 | 0.0 | 0.0 | 0.00 | 2.77 | 2.64 | 99 | 1010.9 |
| 20260509231548 | 19 | 145 | 0.0 | 0.0 | 0.00 | 2.77 | 2.64 | 99 | 1010.9 |
| 20260509231048 | 19 | 145 | 0.0 | 0.0 | 0.00 | 2.77 | 2.64 | 99 | 1011.1 |
| 20260509230548 | 19 | 145 | 0.0 | 0.0 | 0.03 | 2.77 | 2.64 | 99 | 1011.2 |
| 20260509230048 | 19 | 145 | 0.0 | 1.6 | 0.03 | 2.77 | 2.64 | 99 | 1011.2 |
| 20260509225547 | 19 | 145 | 0.0 | 1.6 | 0.03 | 2.77 | 2.64 | 99 | 1011.2 |
| 20260509225123 | 18 | 145 | 0.0 | 1.6 | 0.03 | 2.79 | 2.64 | 99 | 1011.3 |
| 20260509225110 | 19 | 145 | 0.0 | 1.6 | 0.03 | 2.77 | 2.64 | 99 | 1011.3 |
| 20260509224332 | 19 | 145 | 0.0 | 1.6 | 0.03 | 2.79 | 2.64 | 99 | 1011.0 |
| 20260509223546 | 19 | 216 | 0.0 | 0.0 | 0.03 | 2.82 | 2.64 | 99 | 1010.8 |
| 20260509223046 | 19 | 216 | 0.0 | 1.6 | 0.03 | 2.82 | 2.64 | 99 | 1010.9 |
| 20260509222832 | 18 | 216 | 0.0 | 3.2 | 0.03 | 2.84 | 2.64 | 99 | 1010.9 |
| 20260509222046 | 18 | 312 | 0.0 | 3.2 | 0.03 | 2.84 | 2.64 | 99 | 1011.1 |
| 20260509221830 | 19 | 269 | 0.0 | 1.6 | 0.03 | 2.87 | 2.64 | 99 | 1010.2 |
| 20260509221047 | 19 | 353 | 0.0 | 1.6 | 0.03 | 2.87 | 2.64 | 99 | 1010.4 |
| 20260509220833 | 18 | 290 | 0.0 | 1.6 | 0.00 | 2.87 | 2.62 | 99 | 1010.4 |
| 20260509220047 | 18 | 148 | 0.0 | 1.6 | 0.00 | 2.90 | 2.62 | 99 | 1010.8 |
| 20260509215617 | 19 | 248 | 0.0 | 1.6 | 0.00 | 2.95 | 2.62 | 99 | 1011.3 |
| 20260509215608 | 19 | 152 | 0.0 | 1.6 | 0.00 | 2.92 | 2.62 | 99 | 1011.1 |
| 20260509214545 | 19 | 224 | 0.0 | 1.6 | 0.00 | 3.00 | 2.62 | 99 | 1010.9 |
| 20260509214328 | 19 | 152 | 0.0 | 1.6 | 0.00 | 3.02 | 2.62 | 99 | 1010.8 |
| 20260509213545 | 19 | 152 | 1.6 | 1.6 | 0.00 | 3.05 | 2.62 | 99 | 1011.0 |
| 20260509213046 | 19 | 152 | 0.0 | 1.6 | 0.00 | 3.07 | 2.62 | 99 | 1010.8 |
| 20260509212545 | 18 | 158 | 0.0 | 1.6 | 0.00 | 3.10 | 2.62 | 99 | 1011.1 |
| 20260509212046 | 19 | 125 | 0.0 | 1.6 | 0.00 | 3.17 | 2.62 | 99 | 1011.2 |
| 20260509211545 | 19 | 125 | 0.0 | 1.6 | 0.00 | 3.23 | 2.62 | 99 | 1011.1 |
| 20260509211045 | 19 | 124 | 0.0 | 0.0 | 0.00 | 3.28 | 2.62 | 99 | 1011.0 |
| 20260509210544 | 18 | 124 | 0.0 | 0.0 | 0.00 | 3.35 | 2.62 | 99 | 1010.8 |
| 20260509210045 | 18 | 124 | 0.0 | 1.6 | 0.00 | 3.38 | 2.62 | 99 | 1010.6 |
| 20260509205546 | 18 | 124 | 0.0 | 1.6 | 0.00 | 3.40 | 2.62 | 99 | 1010.6 |
| 20260509205045 | 18 | 128 | 0.0 | 1.6 | 0.00 | 3.40 | 2.62 | 99 | 1010.3 |
| 20260509204826 | 18 | 135 | 0.0 | 1.6 | 0.00 | 3.43 | 2.62 | 99 | 1010.5 |
| 20260509204044 | 18 | 135 | 0.0 | 1.6 | 0.00 | 3.45 | 2.62 | 99 | 1010.5 |
| 20260509203547 | 18 | 168 | 0.0 | 1.6 | 0.00 | 3.51 | 2.62 | 99 | 1010.7 |
| 20260509203044 | 18 | 168 | 0.0 | 1.6 | 0.00 | 3.56 | 2.62 | 99 | 1010.6 |
| 20260509202827 | 18 | 219 | 0.0 | 1.6 | 0.00 | 3.61 | 2.62 | 99 | 1010.7 |
| 20260509202044 | 18 | 127 | 0.0 | 1.6 | 0.00 | 3.63 | 2.62 | 99 | 1010.7 |
| 20260509201824 | 18 | 197 | 0.0 | 1.6 | 0.00 | 3.66 | 2.62 | 99 | 1010.4 |
| 20260509201045 | 18 | 172 | 0.0 | 0.0 | 0.00 | 3.68 | 2.62 | 99 | 1010.3 |
| 20260509200542 | 18 | 172 | 0.0 | 3.2 | 0.00 | 3.71 | 2.62 | 99 | 1010.1 |
| 20260509200043 | 18 | 172 | 1.6 | 3.2 | 0.00 | 3.73 | 2.62 | 99 | 1009.8 |
| 20260509195543 | 18 | 259 | 1.6 | 1.6 | 0.00 | 3.76 | 2.62 | 99 | 1010.3 |
| 20260509195044 | 18 | 155 | 0.0 | 0.0 | 0.00 | 3.76 | 2.62 | 99 | 1009.9 |
| 20260509194542 | 18 | 155 | 0.0 | 0.0 | 0.00 | 3.81 | 2.62 | 99 | 1010.0 |
| 20260509194042 | 18 | 155 | 0.0 | 1.6 | 0.00 | 3.91 | 2.62 | 99 | 1009.8 |
| 20260509193543 | 18 | 155 | 0.0 | 1.6 | 0.00 | 4.06 | 2.62 | 99 | 1009.7 |
| 20260509193043 | 18 | 123 | 0.0 | 0.0 | 0.00 | 4.19 | 2.62 | 99 | 1009.8 |
| 20260509192542 | 18 | 123 | 0.0 | 1.6 | 0.03 | 4.52 | 2.62 | 99 | 1009.6 |
| 20260509192042 | 18 | 123 | 0.0 | 1.6 | 0.03 | 4.78 | 2.62 | 99 | 1009.8 |
| 20260509191542 | 18 | 121 | 0.0 | 3.2 | 0.03 | 5.00 | 2.62 | 99 | 1009.9 |
| 20260509191043 | 18 | 124 | 1.6 | 3.2 | 0.03 | 5.11 | 2.62 | 99 | 1009.9 |
| 20260509190542 | 18 | 354 | 1.6 | 3.2 | 0.03 | 5.28 | 2.62 | 99 | 1010.5 |
| 20260509190042 | 18 | 292 | 0.0 | 1.6 | 0.03 | 5.36 | 2.62 | 99 | 1010.5 |
| 20260509185542 | 18 | 292 | 0.0 | 3.2 | 0.03 | 5.33 | 2.62 | 99 | 1010.4 |
| 20260509185041 | 18 | 292 | 0.0 | 3.2 | 0.03 | 5.33 | 2.62 | 99 | 1010.4 |
| 20260509184542 | 18 | 292 | 3.2 | 3.2 | 0.03 | 5.33 | 2.62 | 99 | 1010.4 |
| 20260509184043 | 18 | 213 | 0.0 | 1.6 | 0.03 | 5.33 | 2.62 | 99 | 1009.5 |
| 20260509183542 | 18 | 282 | 0.0 | 1.6 | 0.03 | 5.33 | 2.62 | 99 | 1009.6 |
| 20260509183042 | 18 | 282 | 0.0 | 1.6 | 0.03 | 5.33 | 2.62 | 99 | 1009.4 |
| 20260509182541 | 18 | 282 | 0.0 | 1.6 | 0.03 | 5.33 | 2.59 | 99 | 1010.5 |
| 20260509182041 | 18 | 282 | 0.0 | 1.6 | 0.03 | 5.33 | 2.59 | 99 | 1010.7 |
| 20260509181825 | 18 | 282 | 0.0 | 1.6 | 0.03 | 5.36 | 2.59 | 99 | 1010.7 |
| 20260509181327 | 18 | 186 | 0.0 | 1.6 | 0.03 | 5.38 | 2.59 | 99 | 1010.7 |
| 20260509180540 | 18 | 285 | 1.6 | 4.8 | 0.05 | 5.61 | 2.59 | 99 | 1010.7 |